Location: Riverside Cemetery
(38.3047°N, 99.7773°W)
Time: 00:26:21
(UTC+00:00)

Cosmos 1544 - Pass Details

Date: 19 September 2020
Orbit: 471 x 491 km, 82.5° (Epoch: 23 October)

Event Time Altitude Azimuth Distance (km) Brightness Sun altitude
Rises 01:09:01 0° 191° (S) 2,552 6.8 -6.2°
Reaches altitude 10° 01:11:07 10° 193° (SSW) 1,674 5.9 -6.6°
Maximum altitude 01:14:46 70° 278° (W) 523 3.5 -7.3°
Drops below altitude 10° 01:18:26 10° 2° (N) 1,679 5.9 -8.1°
Sets 01:20:33 0° 5° (N) 2,560 6.8 -8.5°
